Regional Weather Roundup
Issued by NWS

Home | Current Version | Previous Version | Text Only | Print | Product List | Glossary Off
Versions: 1 2 3 4 5 6 7 8 9 10 11 12 13 14 15 16 17 18 19 20 21 22 23 24 25 26

977
ASUS45 KTFX 220110
RWRMT
MONTANA REGIONAL WEATHER ROUNDUP
NATIONAL WEATHER SERVICE GREAT FALLS MT
700 PM MDT THU MAY 21 2015

NOTE: "FAIR" INDICATES FEW OR NO CLOUDS BELOW 12000 FEET WITH NO
SIGNIFICANT WEATHER AND/OR OBSTRUCTIONS TO VISIBILITY.

MTZ001>007-043-220200-
WEST OF THE DIVIDE

CITY           SKY/WX    TMP DP  RH WIND       PRES   REMARKS
KALISPELL      CLEAR     78  28  16 CALM      29.81F
MISSOULA       CLOUDY    62  44  51 E8        29.91R
BUTTE          PTSUNNY   57  38  48 N3        29.98R
MULLAN PASS    CLOUDY    56  39  53 CALM      29.95F
DEER LODGE       N/A     54  46  76 SE5       30.00S
EUREKA           N/A     79  32  18 W5        29.81F
HAMILTON         N/A     63  46  55 E6        29.90S
LIBBY            N/A     77  32  19 E8        29.80S
RONAN            N/A     75  36  24 NW8       29.89F
$$

MTZ008-052>055-220200-
SOUTHWEST MONTANA

CITY           SKY/WX    TMP DP  RH WIND       PRES   REMARKS
BOZEMAN        PTSUNNY   61  44  53 SE16      29.95S
DILLON         PTSUNNY   61  44  53 E20       29.93S
W YELLOWSTONE  PTSUNNY   52  37  58 CALM      30.01S
THREE FORKS      N/A     57  57 100 SW1       29.96F
TWIN BRIDGES     N/A     62  35  36 NE3       29.94S
$$

MTZ009-010-012-014-046-048-049-054-220200-
EAST SLOPES AND CENTRAL MONTANA

CITY           SKY/WX    TMP DP  RH WIND       PRES   REMARKS
CUT BANK       SUNNY     67  29  24 SE14      29.95F
GREAT FALLS    MOSUNNY   69  38  32 E14       29.93S
MALMSTROM AFB  MOSUNNY   68  40  34 SE18G24   29.92F
HELENA         PTSUNNY   65  40  39 NE13      29.93R
CONRAD           N/A     69  39  33 NE9       29.98S
$$

MTZ011-013-016-021-045-047-050-051-220200-
NORTH CENTRAL MONTANA

CITY           SKY/WX    TMP DP  RH WIND       PRES   REMARKS
HAVRE          SUNNY     70  27  20 SE18      29.96F
LEWISTOWN      SUNNY     64  34  32 E16G25    29.99S
N BAR RANCH    FAIR      61  32  33 SE13G20   30.04F
CHINOOK          N/A     70  27  19 E14G23    29.98F
FORT BENTON      N/A     70  32  24 E14G24    29.94S
$$

MTZ017>020-022>027-061-062-220200-
NORTHEAST MONTANA

CITY           SKY/WX    TMP DP  RH WIND       PRES   REMARKS
GLASGOW        SUNNY     70  28  21 SE17G25   30.04F
JORDAN           N/A     70  22  16 SE14      30.01F
SIDNEY         SUNNY     72  34  25 E9        30.08S
WOLF POINT     SUNNY     72  33  24 SE10      30.06F
MALTA            N/A     70  31  23 E10       29.99F
PLENTYWOOD       N/A     73  28  19 SE6       30.08F
POPLAR           N/A     72  30  21 E13       30.07F
$$

MTZ028>42-056>058-220200-
SOUTHCENTRAL AND SOUTHEAST MONTANA

CITY           SKY/WX    TMP DP  RH WIND       PRES   REMARKS
BAKER          SUNNY     65  31  28 SE22      30.10F
BILLINGS       MOSUNNY   66  38  35 E14       29.97F
LIVINGSTON     LGT RAIN  54  47  77 SE12      29.98F
MILES CITY     SUNNY     69  24  18 SE17      30.02F
BIG TIMBER       N/A     59  41  51 E5        29.99S
EKALAKA          N/A     62  25  24 E16       30.07S
FORSYTH          N/A     70  25  18 SE15      30.00S
LAUREL           N/A     65  37  35 NE12      29.96F
ROUNDUP          N/A     66  34  30 E9        29.91F
$$

REGIONAL REPORTS...DAKOTAS

CITY           SKY/WX    TMP DP  RH WIND       PRES   REMARKS
WILLISTON      SUNNY     73  28  18 VRB6      30.07F
MINOT          SUNNY     69  36  29 N8        30.09S
DICKINSON      SUNNY     67  32  27 E8        30.09F
BEACH          FAIR      66  32  28 SE14G21   30.11S
CROSBY         FAIR      72  28  20 E3        30.09F
WATFORD CITY   FAIR      66  32  28 SE5       30.07S
BISMARCK       SUNNY     71  43  36 S3        30.09F
GRAND FORKS    CLEAR     65  37  35 N9        30.10S
FARGO          CLEAR     66  40  38 NW10      30.09S
BUFFALO SD       N/A     63  28  26 SE17      30.04F
RAPID CITY     CLOUDY    60  39  45 S12       30.12F
$$

REGIONAL REPORTS...WYOMING/IDAHO/WASHINGTON

CITY           SKY/WX    TMP DP  RH WIND       PRES   REMARKS
GILLETTE       MOSUNNY   54  41  61 S22       30.08F
SHERIDAN       CLOUDY    58  42  55 SE14      30.01F
BUFFALO WY     CLOUDY    55  42  61 SE14      30.06F
CODY           MOSUNNY   57  43  58 N6        29.98S
YELLOWSTONE LA   N/A     48  33  56 CALM      30.07F
IDAHO FALLS    PTSUNNY   66  43  43 W6        29.88F
SALMON         MOSUNNY   63  45  51 CALM      29.86F
BOISE          PTSUNNY   71  45  39 SE9       29.80S
SPOKANE        PTSUNNY   81  35  19 E3        29.79F
$$

REGIONAL REPORTS...ALBERTA

CITY           SKY/WX    TMP DP  RH WIND       PRES   REMARKS
EDMONTON       SUNNY     73  27  17 SE12      29.93F
CALGARY        MOSUNNY   70  23  17 S10G20    29.95F
LETHBRIDGE     MOSUNNY   70  27  19 SE9G23    29.93F
MEDICINE HAT   SUNNY     73  23  15 SE12G22   29.96F
$$

REGIONAL REPORTS...SASKATCHEWAN

CITY           SKY/WX    TMP DP  RH WIND       PRES   REMARKS
SWIFT CURRENT  SUNNY     70  27  19 S16G25    30.05F
REGINA         MOSUNNY   73  32  21 S6        30.07F
SASKATOON      SUNNY     73  28  19 SW7G18    30.06F
$$



USA.gov is the U.S. government's official web portal to all federal, state and local government web resources and services.